| time (UTC) | temp C | wind direction | speed KPH | gust KPH | rain 1hr cm | rain 24hr cm | rain mn cm | humidity % | barometer mb |
| 20260506045003 | 12 | 281 | 0.0 | 1.6 | 0.00 | 0.25 | 0.25 | 88 | 1014.3 |
| 20260506044523 | 12 | 277 | 0.0 | 1.6 | 0.00 | 0.25 | 0.25 | 88 | 1014.3 |
| 20260506044003 | 12 | 270 | 0.0 | 1.6 | 0.00 | 0.25 | 0.25 | 88 | 1014.3 |
| 20260506043503 | 12 | 268 | 0.0 | 1.6 | 0.00 | 0.25 | 0.25 | 88 | 1014.3 |
| 20260506043003 | 12 | 269 | 0.0 | 1.6 | 0.00 | 0.25 | 0.25 | 88 | 1014.3 |
| 20260506042502 | 12 | 0 | 0.0 | 0.0 | 0.00 | 0.25 | 0.25 | 88 | 1014.3 |
| 20260506042002 | 12 | 0 | 0.0 | 0.0 | 0.00 | 0.25 | 0.25 | 88 | 1014.3 |
| 20260506041503 | 12 | 0 | 0.0 | 0.0 | 0.00 | 0.25 | 0.25 | 88 | 1014.3 |
| 20260506041003 | 12 | 0 | 0.0 | 0.0 | 0.00 | 0.25 | 0.25 | 88 | 1014.3 |
| 20260506040503 | 12 | 0 | 0.0 | 0.0 | 0.00 | 0.25 | 0.25 | 88 | 1014.3 |
| 20260506040003 | 12 | 0 | 0.0 | 0.0 | 0.00 | 0.25 | 0.25 | 88 | 1014.3 |
| 20260506035503 | 12 | 0 | 0.0 | 0.0 | 0.00 | 0.25 | 0.25 | 88 | 1014.3 |
| 20260506035003 | 12 | 0 | 0.0 | 0.0 | 0.00 | 0.25 | 0.25 | 88 | 1014.3 |
| 20260506034502 | 12 | 248 | 0.0 | 1.6 | 0.00 | 0.25 | 0.25 | 87 | 1014.3 |
| 20260506034024 | 12 | 268 | 0.0 | 4.8 | 0.00 | 0.25 | 0.25 | 87 | 1014.3 |
| 20260506033524 | 12 | 268 | 0.0 | 4.8 | 0.00 | 0.25 | 0.25 | 87 | 1014.3 |
| 20260506033003 | 12 | 227 | 0.0 | 3.2 | 0.00 | 0.25 | 0.25 | 87 | 1014.3 |
| 20260506032524 | 12 | 267 | 0.0 | 6.4 | 0.00 | 0.25 | 0.25 | 87 | 1014.3 |
| 20260506032024 | 12 | 249 | 0.0 | 6.4 | 0.00 | 0.25 | 0.25 | 87 | 1014.3 |
| 20260506031503 | 12 | 166 | 0.0 | 3.2 | 0.00 | 0.25 | 0.25 | 86 | 1014.3 |
| 20260506031002 | 12 | 154 | 0.0 | 1.6 | 0.00 | 0.25 | 0.25 | 87 | 1014.3 |
| 20260506030503 | 12 | 131 | 0.0 | 3.2 | 0.00 | 0.25 | 0.25 | 86 | 1014.3 |
| 20260506030003 | 12 | 179 | 0.0 | 3.2 | 0.00 | 0.25 | 0.25 | 86 | 1014.3 |
| 20260506025503 | 12 | 290 | 0.0 | 3.2 | 0.00 | 0.25 | 0.25 | 86 | 1014.3 |
| 20260506025024 | 12 | 339 | 0.0 | 3.2 | 0.00 | 0.25 | 0.25 | 86 | 1014.3 |
| 20260506024503 | 12 | 352 | 0.0 | 3.2 | 0.00 | 0.25 | 0.25 | 86 | 1014.3 |
| 20260506024003 | 12 | 350 | 0.0 | 3.2 | 0.00 | 0.25 | 0.25 | 85 | 1014.3 |
| 20260506023524 | 12 | 342 | 0.0 | 3.2 | 0.00 | 0.25 | 0.25 | 85 | 1014.3 |
| 20260506023003 | 12 | 324 | 0.0 | 1.6 | 0.00 | 0.25 | 0.25 | 85 | 1014.3 |
| 20260506022524 | 12 | 289 | 0.0 | 4.8 | 0.00 | 0.25 | 0.25 | 85 | 1014.3 |
| 20260506022024 | 12 | 279 | 0.0 | 4.8 | 0.00 | 0.25 | 0.25 | 85 | 1014.3 |
| 20260506021503 | 13 | 284 | 0.0 | 3.2 | 0.00 | 0.25 | 0.25 | 85 | 1014.3 |
| 20260506021024 | 13 | 268 | 0.0 | 3.2 | 0.00 | 0.25 | 0.25 | 85 | 1014.3 |
| 20260506020503 | 13 | 238 | 0.0 | 4.8 | 0.00 | 0.25 | 0.25 | 85 | 1014.3 |
| 20260506020003 | 13 | 238 | 0.0 | 4.8 | 0.00 | 0.25 | 0.25 | 84 | 1014.3 |
| 20260506015503 | 13 | 238 | 1.6 | 6.4 | 0.00 | 0.25 | 0.25 | 84 | 1014.3 |
| 20260506015003 | 13 | 233 | 1.6 | 6.4 | 0.00 | 0.25 | 0.25 | 84 | 1014.3 |
| 20260506014503 | 13 | 232 | 1.6 | 8.0 | 0.00 | 0.25 | 0.25 | 84 | 1014.3 |
| 20260506014024 | 13 | 243 | 0.0 | 8.0 | 0.00 | 0.25 | 0.25 | 84 | 1014.3 |
| 20260506013524 | 13 | 280 | 0.0 | 4.8 | 0.00 | 0.25 | 0.25 | 84 | 1014.3 |
| 20260506013024 | 13 | 292 | 0.0 | 3.2 | 0.00 | 0.25 | 0.25 | 84 | 1014.3 |
| 20260506012503 | 13 | 291 | 0.0 | 3.2 | 0.00 | 0.25 | 0.25 | 84 | 1014.3 |
| 20260506012003 | 13 | 277 | 0.0 | 3.2 | 0.00 | 0.25 | 0.25 | 84 | 1014.3 |
| 20260506011503 | 13 | 261 | 0.0 | 3.2 | 0.00 | 0.25 | 0.25 | 84 | 1014.3 |
| 20260506011024 | 13 | 260 | 0.0 | 3.2 | 0.00 | 0.25 | 0.25 | 84 | 1014.3 |
| 20260506010524 | 13 | 270 | 0.0 | 3.2 | 0.00 | 0.25 | 0.25 | 84 | 1014.3 |
| 20260506010003 | 13 | 283 | 0.0 | 3.2 | 0.00 | 0.25 | 0.25 | 84 | 1014.3 |
| 20260506005503 | 13 | 275 | 0.0 | 1.6 | 0.00 | 0.25 | 0.25 | 84 | 1014.3 |
| 20260506005003 | 13 | 297 | 0.0 | 3.2 | 0.00 | 0.25 | 0.25 | 84 | 1014.3 |
| 20260506004503 | 13 | 288 | 0.0 | 3.2 | 0.00 | 0.25 | 0.25 | 84 | 1014.3 |
| 20260506004024 | 13 | 233 | 0.0 | 6.4 | 0.00 | 0.25 | 0.25 | 84 | 1014.3 |
| 20260506003503 | 13 | 246 | 0.0 | 6.4 | 0.00 | 0.25 | 0.25 | 83 | 1014.3 |
| 20260506003003 | 13 | 257 | 0.0 | 4.8 | 0.00 | 0.25 | 0.25 | 84 | 1014.3 |
| 20260506002503 | 13 | 252 | 0.0 | 6.4 | 0.00 | 0.25 | 0.25 | 84 | 1014.3 |
| 20260506002003 | 13 | 249 | 0.0 | 6.4 | 0.00 | 0.25 | 0.25 | 83 | 1014.3 |
| 20260506001503 | 13 | 234 | 0.0 | 3.2 | 0.00 | 0.25 | 0.25 | 84 | 1014.3 |
| 20260506001024 | 13 | 236 | 0.0 | 4.8 | 0.00 | 0.25 | 0.25 | 84 | 1014.3 |
| 20260506000503 | 13 | 244 | 0.0 | 4.8 | 0.00 | 0.25 | 0.25 | 84 | 1014.3 |
| 20260506000003 | 13 | 254 | 0.0 | 3.2 | 0.00 | 0.25 | 0.25 | 84 | 1014.3 |
| 20260505235503 | 13 | 253 | 0.0 | 3.2 | 0.00 | 0.25 | 0.25 | 84 | 1014.3 |
| 20260505235003 | 13 | 259 | 0.0 | 3.2 | 0.00 | 0.25 | 0.25 | 84 | 1014.3 |
| 20260505234524 | 13 | 273 | 0.0 | 1.6 | 0.00 | 0.25 | 0.25 | 84 | 1014.3 |
| 20260505234003 | 14 | 273 | 0.0 | 1.6 | 0.00 | 0.25 | 0.25 | 84 | 1014.3 |
| 20260505233524 | 14 | 270 | 0.0 | 3.2 | 0.00 | 0.25 | 0.25 | 84 | 1014.3 |
| 20260505233003 | 14 | 297 | 1.6 | 6.4 | 0.00 | 0.25 | 0.25 | 83 | 1014.3 |
| 20260505232503 | 14 | 279 | 1.6 | 6.4 | 0.00 | 0.25 | 0.25 | 83 | 1014.3 |
| 20260505232003 | 14 | 241 | 1.6 | 8.0 | 0.00 | 0.25 | 0.25 | 84 | 1014.3 |
| 20260505231503 | 14 | 266 | 0.0 | 8.0 | 0.00 | 0.25 | 0.25 | 84 | 1014.3 |
| 20260505231003 | 14 | 298 | 0.0 | 4.8 | 0.00 | 0.25 | 0.25 | 84 | 1014.3 |
| 20260505230524 | 13 | 290 | 0.0 | 4.8 | 0.00 | 0.25 | 0.25 | 85 | 1014.3 |
| 20260505230003 | 13 | 268 | 0.0 | 3.2 | 0.00 | 0.25 | 0.25 | 85 | 1014.3 |
| 20260505225503 | 13 | 259 | 1.6 | 9.7 | 0.00 | 0.25 | 0.25 | 85 | 1014.3 |
| 20260505225003 | 13 | 257 | 1.6 | 9.7 | 0.00 | 0.25 | 0.25 | 85 | 1014.3 |
| 20260505224503 | 13 | 259 | 0.0 | 4.8 | 0.00 | 0.25 | 0.25 | 86 | 1014.3 |
| 20260505224024 | 13 | 258 | 0.0 | 3.2 | 0.00 | 0.25 | 0.25 | 87 | 1014.3 |
| 20260505223524 | 13 | 244 | 0.0 | 3.2 | 0.00 | 0.25 | 0.25 | 87 | 1014.3 |
| 20260505223003 | 13 | 244 | 0.0 | 3.2 | 0.00 | 0.25 | 0.25 | 87 | 1014.3 |
| 20260505222503 | 13 | 245 | 0.0 | 3.2 | 0.00 | 0.25 | 0.25 | 87 | 1014.3 |
| 20260505222003 | 13 | 243 | 0.0 | 4.8 | 0.00 | 0.25 | 0.25 | 87 | 1014.3 |
| 20260505221524 | 13 | 252 | 0.0 | 4.8 | 0.00 | 0.25 | 0.25 | 88 | 1014.3 |
| 20260505221003 | 13 | 251 | 0.0 | 4.8 | 0.00 | 0.25 | 0.25 | 89 | 1014.3 |
| 20260505220503 | 13 | 240 | 0.0 | 3.2 | 0.00 | 0.25 | 0.25 | 89 | 1014.3 |
| 20260505220003 | 13 | 256 | 0.0 | 3.2 | 0.00 | 0.25 | 0.25 | 90 | 1014.3 |
| 20260505215524 | 13 | 257 | 0.0 | 3.2 | 0.00 | 0.25 | 0.25 | 90 | 1014.3 |
| 20260505215003 | 13 | 256 | 0.0 | 1.6 | 0.00 | 0.25 | 0.25 | 90 | 1014.3 |
| 20260505214524 | 13 | 255 | 0.0 | 1.6 | 0.00 | 0.25 | 0.25 | 91 | 1014.3 |
| 20260505214003 | 13 | 259 | 0.0 | 4.8 | 0.00 | 0.25 | 0.25 | 91 | 1014.3 |
| 20260505213503 | 13 | 281 | 0.0 | 4.8 | 0.00 | 0.25 | 0.25 | 91 | 1014.3 |
| 20260505213003 | 13 | 287 | 0.0 | 6.4 | 0.00 | 0.25 | 0.25 | 91 | 1014.3 |
| 20260505212503 | 12 | 265 | 0.0 | 6.4 | 0.00 | 0.25 | 0.25 | 92 | 1014.3 |
| 20260505212003 | 12 | 236 | 0.0 | 1.6 | 0.00 | 0.25 | 0.25 | 92 | 1014.3 |
| 20260505211503 | 12 | 233 | 0.0 | 3.2 | 0.00 | 0.25 | 0.25 | 92 | 1014.3 |
| 20260505211003 | 12 | 254 | 1.6 | 4.8 | 0.00 | 0.25 | 0.25 | 92 | 1014.3 |
| 20260505210503 | 12 | 279 | 1.6 | 4.8 | 0.00 | 0.25 | 0.25 | 93 | 1014.3 |
| 20260505210003 | 12 | 292 | 0.0 | 4.8 | 0.00 | 0.25 | 0.25 | 93 | 1014.3 |
| 20260505205524 | 12 | 233 | 0.0 | 4.8 | 0.00 | 0.25 | 0.25 | 93 | 1014.3 |
| 20260505205003 | 12 | 226 | 0.0 | 4.8 | 0.00 | 0.25 | 0.25 | 94 | 1014.3 |
| 20260505204503 | 12 | 261 | 0.0 | 3.2 | 0.00 | 0.25 | 0.25 | 94 | 1014.3 |
| 20260505204024 | 12 | 327 | 0.0 | 4.8 | 0.00 | 0.25 | 0.25 | 94 | 1014.3 |
| 20260505203503 | 12 | 356 | 0.0 | 4.8 | 0.00 | 0.25 | 0.25 | 94 | 1014.3 |
| 20260505203024 | 12 | 335 | 0.0 | 4.8 | 0.00 | 0.25 | 0.25 | 94 | 1014.3 |
| 20260505202503 | 12 | 296 | 0.0 | 4.8 | 0.00 | 0.25 | 0.25 | 94 | 1014.3 |
| 20260505202003 | 12 | 251 | 0.0 | 4.8 | 0.00 | 0.25 | 0.25 | 95 | 1014.3 |
| 20260505201503 | 12 | 224 | 0.0 | 8.0 | 0.00 | 0.25 | 0.25 | 95 | 1014.3 |
| 20260505201003 | 12 | 237 | 1.6 | 8.0 | 0.00 | 0.25 | 0.25 | 94 | 1014.3 |
| 20260505200503 | 12 | 298 | 0.0 | 6.4 | 0.00 | 0.25 | 0.25 | 95 | 1014.3 |
| 20260505200024 | 12 | 257 | 0.0 | 8.0 | 0.00 | 0.25 | 0.25 | 95 | 1014.3 |
| 20260505195503 | 12 | 248 | 0.0 | 8.0 | 0.00 | 0.25 | 0.25 | 95 | 1014.3 |
| 20260505195003 | 12 | 263 | 1.6 | 4.8 | 0.00 | 0.25 | 0.25 | 95 | 1014.3 |
| 20260505194524 | 12 | 231 | 1.6 | 6.4 | 0.00 | 0.25 | 0.25 | 95 | 1014.3 |
| 20260505194003 | 12 | 233 | 1.6 | 8.0 | 0.00 | 0.25 | 0.25 | 95 | 1014.3 |
| 20260505193503 | 12 | 242 | 1.6 | 8.0 | 0.00 | 0.25 | 0.25 | 95 | 1014.3 |
| 20260505193003 | 12 | 236 | 1.6 | 6.4 | 0.00 | 0.25 | 0.25 | 96 | 1014.3 |
| 20260505192503 | 12 | 244 | 1.6 | 6.4 | 0.00 | 0.25 | 0.25 | 95 | 1014.3 |
| 20260505192003 | 11 | 253 | 0.0 | 4.8 | 0.00 | 0.25 | 0.25 | 95 | 1014.3 |
| 20260505191503 | 11 | 226 | 0.0 | 8.0 | 0.00 | 0.25 | 0.25 | 95 | 1014.3 |
| 20260505191003 | 11 | 236 | 1.6 | 9.7 | 0.00 | 0.25 | 0.25 | 95 | 1014.3 |
| 20260505190503 | 11 | 238 | 1.6 | 9.7 | 0.00 | 0.25 | 0.25 | 95 | 1014.3 |
| 20260505190024 | 11 | 236 | 0.0 | 3.2 | 0.00 | 0.25 | 0.25 | 95 | 1014.3 |
| 20260505185503 | 12 | 266 | 0.0 | 3.2 | 0.00 | 0.25 | 0.25 | 95 | 1014.3 |
| 20260505185003 | 12 | 251 | 0.0 | 4.8 | 0.00 | 0.25 | 0.25 | 95 | 1014.3 |
| 20260505184503 | 12 | 256 | 1.6 | 6.4 | 0.00 | 0.25 | 0.25 | 95 | 1014.3 |
| 20260505184003 | 12 | 264 | 1.6 | 6.4 | 0.03 | 0.25 | 0.25 | 96 | 1014.3 |
| 20260505183503 | 12 | 256 | 1.6 | 8.0 | 0.03 | 0.25 | 0.25 | 96 | 1014.3 |
| 20260505183024 | 12 | 276 | 1.6 | 8.0 | 0.03 | 0.25 | 0.25 | 95 | 1014.3 |
| 20260505182503 | 12 | 298 | 0.0 | 3.2 | 0.03 | 0.25 | 0.25 | 96 | 1014.3 |
| 20260505182003 | 12 | 239 | 1.6 | 4.8 | 0.03 | 0.25 | 0.25 | 96 | 1014.3 |
| 20260505181503 | 11 | 251 | 1.6 | 4.8 | 0.03 | 0.25 | 0.25 | 96 | 1014.3 |
| 20260505181003 | 11 | 273 | 1.6 | 6.4 | 0.03 | 0.25 | 0.25 | 95 | 1014.3 |
| 20260505180503 | 11 | 261 | 1.6 | 6.4 | 0.03 | 0.25 | 0.25 | 95 | 1014.3 |
| 20260505180003 | 11 | 257 | 0.0 | 3.2 | 0.03 | 0.25 | 0.25 | 95 | 1014.3 |
| 20260505175503 | 11 | 265 | 0.0 | 4.8 | 0.03 | 0.25 | 0.25 | 95 | 1014.3 |
| 20260505175003 | 11 | 289 | 0.0 | 4.8 | 0.03 | 0.25 | 0.25 | 95 | 1014.3 |
| 20260505174503 | 11 | 298 | 1.6 | 4.8 | 0.03 | 0.25 | 0.25 | 95 | 1014.3 |
| 20260505174003 | 11 | 298 | 0.0 | 4.8 | 0.00 | 0.23 | 0.23 | 95 | 1014.3 |
| 20260505173503 | 11 | 340 | 0.0 | 4.8 | 0.00 | 0.23 | 0.23 | 95 | 1014.3 |
| 20260505173003 | 11 | 325 | 0.0 | 4.8 | 0.03 | 0.23 | 0.23 | 95 | 1014.3 |
| 20260505172524 | 11 | 296 | 0.0 | 3.2 | 0.05 | 0.23 | 0.23 | 95 | 1014.3 |
| 20260505172003 | 11 | 297 | 0.0 | 4.8 | 0.08 | 0.23 | 0.23 | 95 | 1014.3 |
| 20260505171503 | 11 | 315 | 1.6 | 8.0 | 0.08 | 0.23 | 0.23 | 95 | 1014.3 |
| 20260505171003 | 11 | 321 | 1.6 | 8.0 | 0.10 | 0.23 | 0.23 | 95 | 1014.3 |
| 20260505170503 | 11 | 309 | 1.6 | 9.7 | 0.13 | 0.23 | 0.23 | 95 | 1014.3 |
| 20260505170003 | 11 | 310 | 1.6 | 9.7 | 0.13 | 0.23 | 0.23 | 95 | 1014.3 |
| 20260505165504 | 11 | 254 | 0.0 | 8.0 | 0.13 | 0.23 | 0.23 | 95 | 1014.3 |
| 20260505165003 | 11 | 233 | 0.0 | 8.0 | 0.13 | 0.23 | 0.23 | 95 | 1014.3 |
| 20260505164503 | 11 | 217 | 1.6 | 4.8 | 0.13 | 0.23 | 0.23 | 95 | 1014.3 |
| 20260505164003 | 11 | 217 | 1.6 | 11.3 | 0.13 | 0.23 | 0.23 | 95 | 1014.3 |
| 20260505163503 | 11 | 248 | 1.6 | 11.3 | 0.13 | 0.23 | 0.23 | 95 | 1014.3 |
| 20260505163003 | 11 | 268 | 1.6 | 8.0 | 0.10 | 0.20 | 0.20 | 95 | 1014.3 |
| 20260505162524 | 11 | 252 | 0.0 | 6.4 | 0.08 | 0.18 | 0.18 | 94 | 1014.3 |
| 20260505162003 | 11 | 234 | 0.0 | 9.7 | 0.05 | 0.15 | 0.15 | 94 | 1014.3 |
| 20260505161503 | 11 | 231 | 0.0 | 6.4 | 0.05 | 0.15 | 0.15 | 94 | 1014.3 |
| 20260505161003 | 11 | 231 | 0.0 | 3.2 | 0.03 | 0.13 | 0.13 | 94 | 1014.3 |
| 20260505160524 | 11 | 230 | 0.0 | 3.2 | 0.00 | 0.10 | 0.10 | 94 | 1014.3 |
| 20260505153003 | 10 | 229 | 0.0 | 1.6 | 0.00 | 0.10 | 0.10 | 94 | 1014.3 |
| 20260505152504 | 10 | 229 | 0.0 | 1.6 | 0.00 | 0.10 | 0.10 | 94 | 1014.3 |
| 20260505152003 | 10 | 229 | 0.0 | 4.8 | 0.00 | 0.10 | 0.10 | 94 | 1014.3 |
| 20260505151503 | 10 | 228 | 0.0 | 4.8 | 0.00 | 0.10 | 0.10 | 94 | 1014.3 |
| 20260505151003 | 10 | 227 | 0.0 | 4.8 | 0.00 | 0.10 | 0.10 | 94 | 1014.3 |
| 20260505150503 | 10 | 225 | 0.0 | 4.8 | 0.00 | 0.10 | 0.10 | 94 | 1014.3 |
| 20260505140503 | 10 | 219 | 1.6 | 3.2 | 0.00 | 0.10 | 0.10 | 94 | 1014.3 |
| 20260505125003 | 10 | 221 | 1.6 | 4.8 | 0.03 | 0.10 | 0.10 | 93 | 1014.3 |
| 20260505124524 | 10 | 221 | 1.6 | 6.4 | 0.03 | 0.10 | 0.10 | 93 | 1014.3 |
| 20260505124003 | 10 | 221 | 1.6 | 6.4 | 0.03 | 0.10 | 0.10 | 93 | 1014.3 |
| 20260505123503 | 10 | 221 | 0.0 | 4.8 | 0.03 | 0.10 | 0.10 | 93 | 1014.3 |
| 20260505123003 | 10 | 222 | 1.6 | 4.8 | 0.03 | 0.10 | 0.10 | 93 | 1014.3 |
| 20260505122503 | 10 | 222 | 1.6 | 4.8 | 0.05 | 0.10 | 0.10 | 93 | 1014.3 |
| 20260505122003 | 10 | 222 | 0.0 | 3.2 | 0.05 | 0.10 | 0.10 | 93 | 1014.3 |
| 20260505121503 | 10 | 224 | 0.0 | 3.2 | 0.05 | 0.10 | 0.10 | 93 | 1014.3 |
| 20260505121003 | 10 | 224 | 0.0 | 3.2 | 0.05 | 0.10 | 0.10 | 93 | 1014.3 |
| 20260505120503 | 10 | 223 | 0.0 | 4.8 | 0.03 | 0.08 | 0.08 | 93 | 1014.3 |
| 20260505120001 | 10 | 222 | 1.6 | 4.8 | 0.03 | 0.08 | 0.08 | 93 | 1014.3 |
| 20260505115501 | 10 | 221 | 0.0 | 3.2 | 0.03 | 0.08 | 0.08 | 93 | 1014.3 |
| 20260505115001 | 10 | 221 | 0.0 | 3.2 | 0.03 | 0.08 | 0.08 | 93 | 1014.3 |
| 20260505114501 | 10 | 218 | 1.6 | 4.8 | 0.03 | 0.08 | 0.08 | 93 | 1014.3 |
| 20260505114022 | 10 | 215 | 1.6 | 4.8 | 0.03 | 0.08 | 0.08 | 93 | 1014.3 |
| 20260505113501 | 10 | 212 | 0.0 | 3.2 | 0.03 | 0.08 | 0.08 | 93 | 1014.3 |
| 20260505113001 | 10 | 211 | 0.0 | 1.6 | 0.03 | 0.08 | 0.08 | 93 | 1014.3 |
| 20260505112522 | 10 | 211 | 0.0 | 1.6 | 0.00 | 0.05 | 0.08 | 93 | 1014.3 |
| 20260505112022 | 10 | 211 | 0.0 | 1.6 | 0.03 | 0.05 | 0.05 | 93 | 1014.3 |
| 20260505111522 | 10 | 211 | 0.0 | 1.6 | 0.03 | 0.05 | 0.05 | 93 | 1014.3 |
| 20260505111001 | 10 | 211 | 0.0 | 1.6 | 0.03 | 0.05 | 0.05 | 93 | 1014.3 |
| 20260505110501 | 10 | 211 | 0.0 | 1.6 | 0.05 | 0.05 | 0.05 | 93 | 1014.3 |
| 20260505102001 | 10 | 235 | 1.6 | 4.8 | 0.03 | 0.03 | 0.03 | 92 | 1014.6 |
| 20260505101501 | 10 | 236 | 0.0 | 3.2 | 0.03 | 0.03 | 0.03 | 91 | 1014.6 |
| 20260505101002 | 10 | 235 | 0.0 | 3.2 | 0.03 | 0.03 | 0.03 | 92 | 1014.6 |
| 20260505100502 | 10 | 234 | 0.0 | 3.2 | 0.00 | 0.00 | 0.00 | 92 | 1014.6 |
| 20260505100001 | 10 | 228 | 0.0 | 1.6 | 0.00 | 0.00 | 0.00 | 92 | 1014.6 |
| 20260505095501 | 10 | 228 | 0.0 | 3.2 | 0.00 | 0.00 | 0.00 | 91 | 1014.6 |
| 20260505095002 | 10 | 228 | 0.0 | 4.8 | 0.00 | 0.00 | 0.00 | 91 | 1014.6 |
| 20260505094501 | 10 | 227 | 0.0 | 4.8 | 0.00 | 0.00 | 0.00 | 91 | 1014.6 |
| 20260505094001 | 10 | 227 | 0.0 | 4.8 | 0.00 | 0.00 | 0.00 | 91 | 1014.6 |
| 20260505093501 | 10 | 223 | 0.0 | 3.2 | 0.00 | 0.00 | 0.00 | 91 | 1014.6 |
| 20260505093001 | 10 | 214 | 0.0 | 3.2 | 0.00 | 0.00 | 0.00 | 91 | 1014.6 |
| 20260505092502 | 10 | 198 | 0.0 | 3.2 | 0.00 | 0.00 | 0.00 | 91 | 1014.6 |
| 20260505092022 | 10 | 198 | 0.0 | 3.2 | 0.00 | 0.00 | 0.00 | 90 | 1014.6 |
| 20260505091502 | 10 | 198 | 0.0 | 1.6 | 0.00 | 0.00 | 0.00 | 91 | 1014.6 |
| 20260505091023 | 10 | 0 | 0.0 | 0.0 | 0.00 | 0.00 | 0.00 | 90 | 1014.6 |
| 20260505090523 | 10 | 198 | 0.0 | 3.2 | 0.00 | 0.00 | 0.00 | 90 | 1014.6 |
| 20260505090002 | 10 | 198 | 0.0 | 3.2 | 0.00 | 0.00 | 0.00 | 90 | 1014.6 |
| 20260505085501 | 10 | 195 | 0.0 | 3.2 | 0.00 | 0.00 | 0.00 | 90 | 1014.6 |
| 20260505085002 | 10 | 206 | 1.6 | 6.4 | 0.00 | 0.00 | 0.00 | 90 | 1014.6 |
| 20260505084501 | 10 | 214 | 1.6 | 6.4 | 0.00 | 0.00 | 0.00 | 90 | 1014.6 |
| 20260505084023 | 10 | 228 | 0.0 | 4.8 | 0.00 | 0.00 | 0.00 | 90 | 1014.6 |
| 20260505083502 | 10 | 232 | 1.6 | 4.8 | 0.00 | 0.00 | 0.00 | 89 | 1014.6 |
| 20260505083001 | 10 | 237 | 1.6 | 4.8 | 0.00 | 0.00 | 0.00 | 89 | 1014.6 |
| 20260505082522 | 10 | 251 | 1.6 | 4.8 | 0.00 | 0.00 | 0.00 | 89 | 1014.6 |
| 20260505082001 | 10 | 296 | 0.0 | 4.8 | 0.00 | 0.00 | 0.00 | 89 | 1014.6 |
| 20260505081502 | 10 | 330 | 0.0 | 3.2 | 0.00 | 0.00 | 0.00 | 89 | 1014.6 |
| 20260505081023 | 10 | 331 | 0.0 | 1.6 | 0.00 | 0.00 | 0.00 | 89 | 1014.6 |
| 20260505080501 | 10 | 331 | 0.0 | 1.6 | 0.00 | 0.00 | 0.00 | 89 | 1014.6 |
| 20260505080002 | 10 | 331 | 0.0 | 1.6 | 0.00 | 0.00 | 0.00 | 88 | 1014.6 |
| 20260505075523 | 10 | 332 | 0.0 | 1.6 | 0.00 | 0.00 | 0.00 | 89 | 1014.6 |
| 20260505075002 | 10 | 333 | 0.0 | 1.6 | 0.00 | 0.00 | 0.00 | 88 | 1014.6 |
| 20260505074501 | 10 | 333 | 0.0 | 1.6 | 0.00 | 0.00 | 0.00 | 88 | 1014.6 |
| 20260505074002 | 10 | 332 | 0.0 | 3.2 | 0.00 | 0.00 | 0.00 | 88 | 1014.6 |
| 20260505073522 | 10 | 335 | 0.0 | 6.4 | 0.00 | 0.00 | 0.00 | 87 | 1014.6 |
| 20260505073002 | 10 | 341 | 1.6 | 6.4 | 0.00 | 0.00 | 0.00 | 87 | 1014.6 |
| 20260505072502 | 10 | 343 | 1.6 | 6.4 | 0.00 | 0.00 | 0.00 | 87 | 1014.6 |
| 20260505072002 | 10 | 346 | 3.2 | 8.0 | 0.00 | 0.00 | 0.00 | 87 | 1014.6 |
| 20260505071501 | 10 | 351 | 1.6 | 8.0 | 0.00 | 0.00 | 0.00 | 87 | 1014.6 |
| 20260505071001 | 10 | 359 | 1.6 | 8.0 | 0.00 | 0.00 | 0.00 | 86 | 1014.6 |
| 20260505070523 | 10 | 7 | 0.0 | 4.8 | 0.00 | 0.00 | 0.00 | 86 | 1014.6 |
| 20260505070005 | 11 | 348 | 1.6 | 9.7 | 0.00 | 0.00 | 0.00 | 86 | 1014.6 |
| 20260505065502 | 11 | 339 | 1.6 | 9.7 | 0.00 | 0.00 | 0.00 | 86 | 1014.6 |
| 20260505065023 | 11 | 348 | 0.0 | 3.2 | 0.00 | 0.00 | 0.00 | 86 | 1014.6 |
| 20260505064501 | 11 | 345 | 0.0 | 3.2 | 0.00 | 0.00 | 0.00 | 86 | 1014.6 |
| 20260505064001 | 11 | 340 | 1.6 | 9.7 | 0.00 | 0.00 | 0.00 | 85 | 1014.6 |
| 20260505063501 | 11 | 339 | 1.6 | 9.7 | 0.00 | 0.00 | 0.00 | 85 | 1014.6 |
| 20260505063001 | 11 | 342 | 0.0 | 3.2 | 0.00 | 0.00 | 0.00 | 85 | 1014.6 |
| 20260505062501 | 11 | 341 | 0.0 | 1.6 | 0.00 | 0.00 | 0.00 | 85 | 1014.6 |
| 20260505062001 | 11 | 341 | 0.0 | 1.6 | 0.00 | 0.00 | 0.00 | 85 | 1014.6 |
| 20260505061501 | 11 | 340 | 0.0 | 3.2 | 0.00 | 0.00 | 0.00 | 85 | 1014.6 |
| 20260505061023 | 11 | 337 | 0.0 | 3.2 | 0.00 | 0.00 | 0.00 | 84 | 1014.6 |
| 20260505060502 | 11 | 344 | 0.0 | 3.2 | 0.00 | 0.00 | 0.00 | 84 | 1014.6 |
| 20260505060002 | 11 | 4 | 0.0 | 3.2 | 0.00 | 0.00 | 0.00 | 84 | 1014.6 |
| 20260505055522 | 11 | 4 | 0.0 | 1.6 | 0.00 | 0.00 | 0.00 | 84 | 1014.6 |
| 20260505055001 | 11 | 0 | 0.0 | 0.0 | 0.00 | 0.00 | 0.00 | 85 | 1014.6 |
| 20260505054502 | 11 | 0 | 0.0 | 0.0 | 0.00 | 0.00 | 0.00 | 85 | 1014.6 |
| 20260505054001 | 11 | 350 | 0.0 | 3.2 | 0.00 | 0.00 | 0.00 | 85 | 1014.6 |
| 20260505053523 | 11 | 349 | 0.0 | 3.2 | 0.00 | 0.00 | 0.00 | 85 | 1014.6 |
| 20260505053002 | 11 | 347 | 0.0 | 3.2 | 0.00 | 0.00 | 0.00 | 85 | 1014.6 |
| 20260505052501 | 11 | 349 | 0.0 | 1.6 | 0.00 | 0.00 | 0.00 | 85 | 1014.7 |
| 20260505052023 | 11 | 351 | 0.0 | 3.2 | 0.00 | 0.00 | 0.00 | 85 | 1014.8 |
| 20260505051502 | 11 | 352 | 0.0 | 3.2 | 0.00 | 0.00 | 0.00 | 85 | 1015.1 |
| 20260505051002 | 11 | 354 | 0.0 | 3.2 | 0.00 | 0.00 | 0.00 | 85 | 1015.3 |
| 20260505050502 | 11 | 9 | 0.0 | 3.2 | 0.00 | 0.00 | 0.00 | 85 | 1015.3 |